Wind_Speed
21 21 22 22 21 19 16 16 16 16 17 18 17 17 17 18 19 18 17 15 15 12 9 8 7 6 8 9 10 11 11 9 7 6 5 7 7 6 7 8 8 8 8 8 8 9 9 9 8 8 8 8 8 8 8 9 9 8 8 7 7 8 8 8 8 8 8 9 9 9 9 9 9 9 9 9 10 10 11 11 12 12 13 14 15
21 21 21 21 21 18 16 15 16 17 17 18 18 17 17 17 18 18 17 16 13 10 10 11 10 8 10 12 11 11 11 10 9 10 8 8 7 6 7 7 7 8 7 7 7 8 9 9 8 8 8 8 8 8 8 8 8 8 8 8 8 8 8 8 8 8 8 8 8 8 8 8 8 8 8 8 8 9 9 9 10 10 11 12 13
21 21 21 21 21 19 16 16 17 17 18 17 17 17 17 17 18 17 15 14 11 10 12 14 13 11 12 13 12 11 10 10 10 11 11 8 7 6 7 7 7 7 7 6 6 7 7 7 7 7 7 7 7 8 8 8 8 8 8 8 8 8 7 7 7 7 7 7 8 8 7 7 7 7 7 8 8 9 9 10 10 11 11 11 12
21 21 21 20 20 19 18 17 17 18 19 18 18 17 16 16 17 16 14 13 13 14 16 16 15 13 12 12 11 11 10 9 9 9 10 8 7 6 6 6 6 7 6 5 5 6 6 6 6 6 6 7 8 8 8 8 8 8 8 8 8 8 7 7 7 6 6 6 6 6 6 6 6 7 7 8 9 9 10 11 11 11 11 11 12
20 20 20 20 20 20 19 18 17 19 19 19 19 17 16 16 16 14 13 14 15 16 16 15 14 13 12 11 10 10 9 8 8 8 9 9 7 7 6 6 6 7 7 5 5 5 5 5 5 6 6 7 8 8 8 8 8 8 8 8 7 7 6 5 5 5 4 5 5 5 6 6 7 7 8 8 9 9 10 10 10 11 11 11 11
18 18 19 20 20 21 20 19 18 19 19 19 18 17 16 16 15 14 13 14 15 16 15 14 13 12 12 11 10 9 8 9 9 9 10 8 7 8 6 5 7 8 7 5 4 4 4 4 5 5 6 7 8 8 8 8 8 8 8 7 6 5 4 4 3 3 4 5 5 6 6 7 7 8 8 8 8 9 9 9 10 10 10 11 11
17 18 20 20 21 21 21 20 20 20 20 20 18 18 17 16 16 16 15 15 16 15 14 14 14 14 13 12 11 10 9 9 9 9 9 9 8 8 7 6 7 8 7 5 4 4 5 5 5 6 7 7 7 7 8 8 8 7 7 6 5 4 3 3 3 4 5 5 6 6 6 7 7 7 7 8 8 8 9 9 9 9 10 10 10
16 18 21 22 22 22 22 22 22 21 22 21 19 18 17 16 17 18 17 17 16 14 14 14 14 15 15 13 11 10 10 11 11 9 9 9 9 9 7 7 8 7 6 6 5 5 6 6 6 7 7 7 7 8 8 8 7 6 5 4 4 3 3 4 5 5 5 6 6 6 6 6 6 7 7 7 8 8 8 8 9 9 9 9 9
15 17 20 23 23 23 23 23 23 23 24 22 19 18 17 16 17 18 18 17 15 14 14 13 13 14 14 13 11 10 10 11 10 9 9 9 9 8 7 7 8 7 7 6 5 5 5 6 7 7 7 7 8 8 8 7 6 5 5 4 4 4 4 5 5 6 6 6 6 6 6 6 6 7 7 7 8 8 8 8 8 8 8 8 8
14 14 14 20 24 23 21 22 22 22 23 21 18 17 17 16 16 16 16 16 14 14 13 12 12 13 13 12 10 9 9 10 9 9 9 9 9 8 7 7 7 7 6 6 5 5 5 7 7 7 8 8 8 8 7 6 6 5 5 5 5 5 5 5 6 6 6 6 6 6 6 6 6 7 7 7 8 7 7 7 7 7 7 8 8
11 10 10 14 20 20 18 17 18 19 19 18 17 18 19 17 16 16 15 15 14 13 14 13 12 11 12 11 9 9 9 10 10 8 8 8 8 7 6 6 7 7 7 6 6 6 7 8 8 8 8 8 8 8 7 6 6 5 5 5 5 5 5 6 6 6 6 6 5 6 6 6 6 7 7 7 7 7 7 7 7 7 7 8 8
9 10 10 11 15 18 17 16 17 18 18 16 15 16 19 17 16 17 16 15 14 13 14 13 12 11 11 10 10 10 10 9 9 8 7 7 8 7 6 6 7 7 7 8 8 8 8 8 8 8 9 9 8 8 7 6 6 5 5 5 5 5 6 6 6 6 6 6 5 5 6 6 6 7 7 7 6 6 6 7 7 8 8 9 9
8 9 10 12 15 17 17 16 17 18 17 15 13 13 16 17 16 16 15 15 14 13 13 12 12 11 10 10 10 10 9 8 8 8 8 8 8 8 7 7 8 8 9 9 9 9 9 9 9 9 9 8 8 7 6 6 5 5 4 5 5 5 6 6 6 6 6 6 6 6 6 6 6 6 6 6 6 7 7 7 8 8 9 10 10
9 10 11 13 15 16 16 16 17 17 16 15 13 13 15 16 15 15 15 15 14 13 12 11 11 11 11 10 10 10 9 8 8 8 9 9 9 8 7 8 9 10 10 10 10 10 10 10 10 9 9 8 7 6 6 6 5 5 5 5 5 6 6 6 6 6 6 6 6 6 5 5 6 6 6 6 7 8 8 8 9 9 10 11 11
10 11 13 14 14 14 15 15 17 17 16 15 14 14 15 16 16 17 16 15 13 13 13 12 11 11 11 11 10 10 10 9 8 9 9 9 8 8 8 9 10 10 10 10 10 11 11 11 11 10 9 7 7 6 6 6 5 5 5 5 5 5 6 6 6 6 6 5 5 5 5 5 6 6 6 7 8 8 9 9 10 11 11 12 12
11 11 14 15 14 13 13 14 17 18 18 16 14 14 16 16 16 16 16 14 13 13 13 12 12 12 12 11 11 11 11 10 9 9 8 8 8 8 9 10 10 10 11 11 11 11 12 12 11 10 8 7 7 6 6 6 6 6 5 5 5 5 5 5 5 5 4 5 5 5 5 5 6 6 7 7 8 9 10 11 11 12 13 13 13
13 13 15 14 13 12 12 14 17 19 19 17 14 14 16 16 15 15 16 15 13 14 14 13 12 12 12 11 11 11 11 10 9 8 8 8 8 8 9 10 11 11 11 10 11 12 12 12 10 9 8 7 7 7 7 6 6 6 6 5 4 4 3 3 3 3 3 4 4 5 5 5 6 7 7 8 9 10 11 12 13 14 14 14 14
14 15 17 15 13 12 13 14 18 20 19 17 15 15 16 16 15 15 15 14 13 14 14 13 12 12 12 11 11 11 11 10 10 10 11 10 10 10 11 11 11 11 9 10 11 12 12 11 10 9 8 8 7 7 6 6 6 6 5 4 3 2 2 2 2 2 3 3 4 4 5 6 7 8 9 10 11 12 13 14 14 15 15 15 15
16 17 18 16 14 14 14 15 19 20 19 17 15 16 17 17 15 14 14 14 14 14 13 12 12 12 12 12 11 12 12 11 12 12 13 12 12 13 13 12 12 10 9 10 11 12 12 10 9 8 7 7 6 6 6 6 6 5 4 3 2 2 2 1 1 2 2 3 4 5 6 7 8 10 11 12 13 14 14 14 15 15 15 15 16
16 17 18 16 14 15 16 18 20 21 20 17 16 17 17 16 14 13 14 14 13 13 12 12 12 12 13 13 13 13 13 13 13 13 13 13 13 13 13 12 11 10 11 11 11 11 11 9 8 7 6 6 6 6 6 6 5 4 3 2 2 2 2 1 1 2 3 4 5 6 8 9 10 11 12 13 14 14 14 14 14 14 15 15 16
16 17 17 15 15 17 18 19 21 21 19 17 17 17 16 14 14 13 13 13 13 13 12 12 13 13 13 13 14 14 14 14 14 14 13 13 13 13 13 12 11 11 11 11 11 11 10 9 7 6 7 7 6 6 6 5 5 4 3 3 2 2 1 2 3 4 5 6 7 8 9 10 11 12 12 13 13 13 14 14 14 14 14 14 15
17 18 18 16 17 19 20 19 20 19 17 16 17 16 14 13 13 13 13 13 13 13 12 13 13 14 14 14 15 15 15 16 16 15 14 14 14 14 13 13 12 11 10 11 12 12 11 8 7 7 7 7 7 6 6 5 5 4 4 3 2 2 2 3 4 5 6 7 8 9 10 10 11 11 11 12 12 12 12 12 13 13 13 13 14
18 18 19 18 19 21 20 19 19 18 16 16 17 16 15 14 13 13 13 13 13 13 13 13 13 14 15 15 16 16 16 17 16 15 14 13 14 14 14 13 12 11 10 11 13 13 10 8 8 8 8 7 7 7 6 5 5 5 4 3 3 3 4 5 5 6 7 8 8 8 9 9 10 10 11 11 11 12 12 12 12 12 12 13 13
17 18 18 19 20 21 20 19 19 18 17 17 18 17 15 15 14 14 13 13 14 14 14 14 14 15 15 16 17 17 18 17 16 15 13 13 13 13 13 13 12 12 11 11 13 12 10 8 9 9 8 8 7 6 6 6 6 6 5 4 5 5 5 6 6 7 7 7 7 7 8 9 10 10 10 11 11 11 11 11 11 12 12 12 12
16 17 17 18 20 20 19 19 18 18 17 17 18 17 16 16 15 15 15 14 14 14 14 14 14 15 15 16 17 18 18 17 16 15 14 13 14 13 13 12 12 12 12 11 12 12 10 9 9 10 9 8 8 7 8 8 7 7 6 6 6 6 7 7 7 6 6 5 5 7 8 9 10 10 10 10 11 11 11 11 11 11 11 11 11
15 15 16 19 19 18 18 18 18 17 17 17 18 18 17 16 15 15 15 14 13 14 14 15 15 15 16 17 18 18 18 17 16 16 15 15 15 14 13 13 12 12 12 12 13 12 11 10 10 11 10 9 9 9 9 8 8 8 7 7 7 7 7 7 6 5 5 5 6 8 9 9 9 9 10 10 10 10 10 10 10 10 11 10 10
14 14 16 18 17 16 17 17 17 16 16 17 18 18 17 16 15 14 14 14 14 14 15 15 15 16 16 16 16 16 17 17 17 16 16 15 15 15 15 14 14 12 12 13 14 14 12 11 11 11 10 11 11 10 10 9 9 8 7 7 7 7 6 5 5 4 5 6 7 8 9 9 8 8 9 9 9 9 9 9 9 10 10 10 10
14 15 16 17 16 16 17 17 17 17 17 17 17 17 17 15 14 13 14 14 14 14 14 14 14 15 15 15 15 15 16 16 16 16 16 15 16 16 15 16 15 13 13 15 16 15 13 12 12 12 12 12 11 11 10 10 9 8 8 7 6 6 5 5 5 5 6 7 8 9 9 8 8 8 8 8 8 8 8 8 9 10 10 10 10
14 15 16 16 16 17 17 17 18 18 17 17 17 18 17 16 15 15 15 15 15 14 13 13 14 14 14 14 15 15 15 15 16 16 16 17 17 16 15 16 17 15 15 16 17 16 14 13 14 13 13 12 12 11 10 9 9 8 7 6 5 5 5 5 6 6 7 8 9 9 9 8 8 8 8 8 8 8 8 8 9 10 11 11 12
15 16 16 16 17 17 17 17 18 18 19 19 19 19 18 18 17 17 16 16 15 14 13 14 14 14 14 14 15 15 15 16 16 16 16 17 16 14 15 17 17 17 16 16 17 16 13 13 14 13 13 13 12 11 10 9 9 8 7 6 6 6 6 7 7 7 8 8 9 10 10 9 9 9 9 9 10 10 9 9 10 11 12 12 13
15 15 16 17 17 16 16 17 18 19 19 19 19 19 19 18 18 17 16 15 14 14 14 14 14 14 15 15 15 15 15 15 15 14 15 16 15 14 15 17 18 17 16 16 17 15 13 14 14 14 14 13 12 11 11 10 9 8 7 7 7 7 8 8 8 8 8 9 10 11 10 10 10 10 10 11 11 11 11 11 11 12 13 14 14
14 15 15 16 16 15 15 16 17 18 19 19 19 19 19 18 17 16 16 16 15 15 15 15 15 15 15 16 16 15 14 14 14 14 15 16 16 15 15 17 17 16 16 16 17 16 14 14 15 15 14 13 12 12 11 11 9 8 8 8 9 9 9 9 9 9 9 10 11 11 11 11 11 11 12 13 13 13 12 12 12 13 13 14 15
13 14 14 14 13 13 14 15 17 18 19 19 18 18 18 18 17 16 16 16 16 16 15 15 15 15 16 16 16 15 15 14 14 15 16 16 16 16 16 17 18 16 16 17 17 17 15 15 15 15 14 13 13 12 11 10 9 9 10 10 11 11 11 11 10 10 10 11 12 12 12 12 12 13 14 15 15 15 14 14 14 14 14 15 15
13 13 14 14 13 13 14 15 17 18 18 18 18 18 18 17 17 17 16 16 16 16 16 16 16 16 16 16 15 15 15 15 14 15 17 17 17 18 19 19 18 17 17 17 18 18 16 16 16 16 15 15 15 13 12 11 10 11 12 12 12 12 12 12 12 12 12 12 12 13 13 14 14 15 16 17 17 17 17 16 16 16 16 16 17
13 13 14 14 13 14 15 16 17 17 17 17 17 18 18 17 17 17 16 16 17 17 18 17 18 17 17 16 16 17 17 17 16 17 17 18 18 18 19 19 17 17 18 17 18 19 17 16 17 17 16 16 16 14 13 13 13 13 13 14 14 14 14 14 14 14 13 14 14 14 15 16 16 17 18 19 19 19 19 19 19 19 19 19 19
13 14 15 15 15 15 16 17 17 16 16 16 16 17 17 17 17 17 16 17 17 18 18 17 17 18 18 17 17 18 18 18 17 17 17 17 17 17 18 17 16 17 18 18 18 19 18 17 17 18 18 17 16 16 15 14 14 15 15 16 16 16 16 16 17 16 16 16 17 17 17 18 19 19 20 21 22 21 21 21 22 22 22 22 22
16 16 16 16 16 16 18 18 18 17 17 17 16 17 17 17 17 16 16 16 17 17 17 17 17 18 18 18 17 18 18 17 17 16 17 16 16 16 17 16 15 16 19 19 19 19 20 19 19 18 19 19 18 17 17 16 16 17 17 17 18 18 18 18 18 19 19 19 20 20 20 21 21 22 22 23 23 23 23 23 24 25 25 25 25
18 18 18 17 17 18 19 19 19 18 17 17 17 18 18 18 17 16 16 16 16 16 16 16 17 17 17 17 17 18 18 17 16 16 16 16 16 17 17 16 15 17 20 21 20 20 20 20 20 19 20 20 20 19 18 18 19 20 20 20 20 20 20 20 21 21 21 22 22 22 23 24 24 24 24 25 25 26 26 26 27 28 29 29 29
19 18 18 19 19 20 20 20 20 19 18 17 17 18 19 18 18 17 17 16 15 15 15 16 16 17 17 17 18 18 18 16 15 16 16 17 17 19 19 17 17 19 21 23 22 21 21 21 21 21 21 21 22 21 20 20 21 23 23 23 23 23 23 22 23 23 23 24 24 24 25 26 27 27 27 27 27 28 29 29 30 31 32 33 32
20 19 20 21 22 22 21 21 21 21 20 19 19 19 19 19 19 19 18 18 16 16 16 16 17 17 17 18 18 18 17 16 16 17 17 18 19 20 20 19 19 20 23 25 24 23 22 22 22 23 23 23 24 24 23 23 24 25 26 26 26 27 26 25 24 25 26 26 27 27 28 29 30 30 30 30 30 31 32 32 33 34 36 37 36
22 21 22 24 24 23 22 22 22 22 22 22 22 21 20 20 20 20 20 20 19 18 18 18 18 18 17 18 18 17 17 17 18 19 19 19 20 22 22 21 20 21 24 25 25 24 23 22 23 24 24 25 25 26 26 26 27 28 29 28 29 30 30 28 27 27 28 28 29 30 31 32 32 33 33 34 34 36 37 37 37 38 40 41 41
26 23 24 25 25 24 23 23 23 24 24 25 25 24 22 21 21 21 22 22 21 20 20 19 18 17 17 17 18 19 19 19 20 21 21 21 22 23 24 23 22 22 23 25 25 25 24 23 23 24 25 26 27 27 27 28 28 30 31 31 32 33 33 31 30 30 31 31 32 33 33 34 34 35 36 37 38 40 41 42 43 43 44 45 45
28 25 25 27 26 25 25 24 25 25 25 27 28 27 25 24 23 22 22 22 22 21 21 20 19 17 17 18 19 19 19 19 21 22 23 24 24 25 26 26 24 23 23 24 25 25 25 25 25 25 26 27 28 29 29 30 30 31 32 33 33 34 35 34 33 32 32 34 34 34 33 34 35 36 37 37 38 41 42 44 45 46 47 47 48
28 28 27 28 26 26 26 26 26 26 26 27 29 29 28 27 26 24 23 22 21 21 22 21 20 19 19 20 20 20 20 21 23 24 25 26 27 27 27 27 26 25 25 25 25 26 26 26 27 28 28 29 30 31 31 32 33 34 34 34 35 36 36 36 36 35 35 36 37 36 36 37 38 39 39 40 41 42 43 44 46 47 48 49 50
29 30 29 29 27 28 28 27 27 27 26 27 29 29 29 29 28 27 25 24 22 22 22 22 21 21 21 22 22 22 23 24 26 27 27 28 28 28 28 28 27 27 27 27 27 27 28 29 29 30 31 32 33 34 34 34 35 36 36 36 37 38 38 39 39 39 39 40 41 41 42 42 43 44 44 45 46 47 47 48 49 49 50 51 52
30 32 32 30 29 29 30 29 29 28 27 27 28 29 30 30 29 28 27 25 24 24 23 23 22 23 23 24 24 24 25 26 27 28 28 28 28 28 29 29 29 29 29 29 29 30 31 31 32 32 33 34 35 35 36 36 37 37 37 38 39 40 41 42 42 42 43 44 45 46 46 46 47 48 47 48 49 50 51 51 52 53 54 55 55
31 33 33 32 31 31 31 30 30 30 28 27 28 29 30 30 29 28 27 26 25 25 24 24 23 24 24 26 26 26 27 27 28 29 29 29 29 29 29 30 31 31 31 31 32 32 33 33 34 35 35 36 36 37 38 38 39 39 40 40 40 41 43 44 44 44 45 46 48 49 48 48 50 50 49 50 51 52 53 54 55 56 57 58 56
34 34 35 34 33 32 31 31 31 31 30 29 28 28 29 29 29 28 26 26 25 25 25 25 24 25 26 27 28 28 29 29 30 30 31 31 32 31 32 32 33 33 33 33 34 34 34 35 35 36 37 38 38 39 39 40 40 41 42 42 43 44 45 45 45 46 47 49 51 52 51 50 52 53 52 52 54 55 56 58 59 59 60 59 57
37 36 35 34 33 33 32 31 31 31 32 31 30 29 29 29 30 29 27 26 26 25 25 26 26 27 28 29 30 30 31 31 32 32 33 33 34 34 34 34 34 34 34 34 35 35 35 36 36 37 38 38 39 40 40 41 42 43 44 44 45 45 46 46 46 47 48 50 53 54 54 53 54 55 55 56 58 60 61 62 62 63 63 62 61
38 38 36 34 34 35 34 32 31 31 33 33 32 31 31 30 30 29 28 28 27 27 27 28 29 30 31 32 33 33 33 33 33 34 34 34 34 34 34 34 34 35 35 36 36 36 37 37 38 38 39 39 40 41 42 43 44 44 45 45 46 46 47 48 49 48 49 51 53 56 57 56 57 59 60 62 63 63 64 65 65 65 65 65 66
40 40 38 35 37 38 36 34 32 32 33 35 34 33 32 31 31 30 30 30 31 32 32 32 32 33 34 35 35 35 35 34 34 34 34 34 34 34 34 35 35 35 36 36 37 37 37 38 38 39 40 40 41 41 42 44 45 45 46 46 47 48 49 51 52 52 52 53 55 58 59 59 60 62 64 66 66 65 66 67 68 68 69 69 70
Wind_Direction
264 263 264 266 265 262 258 253 253 249 239 237 240 240 243 245 245 246 246 248 250 249 255 265 260 227 215 224 226 232 253 270 262 252 279 296 284 278 271 260 256 250 238 227 221 221 222 223 226 230 235 240 246 249 250 250 249 246 245 247 250 254 258 261 265 269 273 278 282 285 287 289 291 292 292 291 289 288 287 286 285 285 284 283 283
262 261 264 266 266 263 256 254 254 248 239 238 242 242 243 245 247 245 244 249 251 256 265 263 262 246 216 211 221 234 249 261 256 243 259 295 293 286 279 270 266 261 247 235 228 227 228 228 230 234 238 242 245 245 244 243 240 236 234 235 238 243 249 255 259 264 269 275 279 282 285 288 291 295 296 297 297 297 297 297 296 296 296 295 293
262 261 262 263 265 265 261 260 257 248 240 238 239 241 242 244 246 245 247 251 249 250 255 254 257 249 220 210 221 237 245 252 251 242 249 276 295 293 284 279 277 271 258 244 236 234 235 236 238 241 243 244 243 241 237 234 230 228 227 228 233 239 245 253 259 264 269 274 277 280 285 291 294 296 298 300 300 300 301 301 300 301 301 301 302
263 261 260 260 261 262 261 260 255 244 237 232 231 235 240 242 244 245 247 246 240 240 245 250 252 238 218 212 222 239 244 247 248 242 244 263 291 290 279 275 271 270 263 250 240 235 234 235 237 239 241 240 238 234 230 226 223 222 223 227 233 239 247 255 261 265 270 276 281 286 292 296 297 297 297 298 298 299 299 299 299 300 301 303 304
262 260 258 257 257 256 255 254 250 241 233 227 226 232 237 240 243 243 241 241 242 244 248 249 242 226 220 221 228 242 246 244 248 249 250 260 284 286 276 268 263 264 261 255 251 240 232 233 234 235 235 236 234 228 222 219 219 220 225 232 238 244 250 255 261 267 278 287 293 296 296 296 296 296 296 297 297 299 300 300 301 304 306 307 307
262 261 257 254 251 251 250 249 247 241 232 225 226 231 234 237 239 236 234 241 248 251 248 238 228 223 227 230 235 246 245 237 243 255 251 252 274 282 275 264 256 257 255 251 247 237 228 227 225 226 227 229 229 225 217 214 219 225 232 238 243 245 245 251 264 279 290 296 297 296 294 295 297 297 297 298 299 301 303 304 307 310 312 313 311
263 262 257 251 248 247 249 248 245 240 230 224 225 227 229 231 231 230 230 240 249 248 236 225 226 231 233 236 240 245 244 239 246 254 249 252 271 277 271 255 248 249 247 236 227 225 221 216 214 216 218 219 221 220 216 216 222 231 236 237 238 239 247 263 283 294 296 294 291 291 293 296 298 298 299 300 303 304 306 308 310 314 316 317 316
263 264 256 249 247 247 247 246 245 239 228 222 225 225 224 227 230 228 229 238 243 237 226 223 230 236 237 240 241 244 247 245 252 259 259 266 273 271 262 245 243 243 236 228 222 219 212 205 203 205 208 211 213 213 215 219 224 226 227 226 233 247 268 285 293 295 293 291 290 290 295 300 302 302 304 306 308 309 310 312 314 317 319 318 315
270 272 260 248 244 246 247 244 243 238 225 220 226 224 220 226 230 227 227 231 231 227 226 227 231 237 241 243 244 247 244 240 253 267 268 271 268 263 256 245 246 241 229 221 210 204 205 201 196 195 199 203 206 210 213 215 212 212 218 227 244 260 275 286 292 293 292 290 290 293 298 304 308 308 311 314 315 315 316 318 320 323 323 319 317
275 272 257 246 241 240 241 238 236 231 219 218 228 227 221 225 226 220 221 224 221 223 229 232 235 240 242 243 245 246 240 241 260 273 266 264 259 254 252 244 242 231 218 206 197 202 207 199 192 191 193 198 202 203 202 201 202 212 227 240 254 267 279 286 291 293 290 289 291 297 303 308 312 314 318 319 319 319 319 322 324 326 324 322 321
271 255 239 239 231 223 220 217 217 213 208 215 227 226 222 223 222 215 214 217 219 222 228 234 239 238 238 242 247 247 244 250 262 266 259 259 256 248 240 234 229 219 208 201 204 206 202 197 198 199 197 199 200 196 194 200 211 225 239 252 265 278 288 291 293 294 293 292 295 299 303 309 315 318 321 320 319 319 319 322 323 324 323 322 322
258 240 228 222 209 203 204 203 201 200 203 214 223 225 222 219 220 216 212 215 217 220 226 235 240 239 240 244 250 251 250 252 253 254 254 253 250 247 241 231 222 214 206 205 208 203 200 204 210 208 202 201 200 198 202 212 224 235 249 263 275 285 292 295 298 299 299 300 301 302 305 311 318 319 320 319 317 315 314 316 317 318 319 319 321
247 240 229 215 204 202 205 205 203 201 205 214 215 216 215 216 219 215 211 216 218 221 228 237 241 242 241 239 244 247 244 241 241 248 249 245 247 252 249 230 217 215 213 211 207 203 204 209 213 212 209 207 206 209 217 227 236 246 260 271 283 292 298 301 302 302 302 303 302 303 306 311 316 318 319 318 315 313 312 312 314 316 318 319 319
251 246 235 222 212 209 207 207 206 204 207 209 204 203 209 218 221 216 214 218 220 226 232 237 242 242 238 235 239 240 235 228 232 243 245 244 249 255 251 232 218 215 213 209 204 204 207 208 211 213 214 216 218 225 234 243 251 259 269 279 290 298 304 304 302 300 300 300 300 303 308 312 317 319 320 321 319 318 317 317 318 319 318 318 317
258 248 238 230 217 208 206 208 208 206 208 206 200 203 211 220 222 217 216 218 223 231 236 238 238 238 237 235 235 235 233 230 231 240 243 243 244 245 240 228 216 207 207 208 205 206 208 210 212 215 218 222 226 235 243 252 259 265 274 285 294 298 302 301 300 299 299 302 303 306 310 315 320 324 327 327 325 322 321 321 320 318 316 314 312
257 245 231 223 213 208 207 210 210 209 212 209 201 205 215 224 224 216 215 222 230 231 232 232 229 230 231 229 227 229 234 232 227 230 233 229 225 228 225 217 208 201 206 211 209 210 213 214 215 217 220 225 231 238 243 251 260 270 279 286 292 297 299 300 301 302 304 307 309 312 317 323 328 331 331 328 324 322 320 320 317 315 313 310 306
245 230 217 212 212 213 212 213 212 212 215 212 203 207 217 226 227 219 219 228 232 230 228 225 222 223 224 225 228 232 232 227 221 222 220 212 211 218 217 210 205 204 208 214 217 219 221 220 220 221 225 229 234 237 243 254 263 273 279 284 291 295 297 298 298 303 308 313 316 322 327 330 331 328 325 322 320 319 318 316 314 312 309 305 301
232 220 214 216 219 219 217 216 213 212 216 214 209 214 220 224 224 221 223 227 227 230 229 223 220 221 223 227 232 231 228 225 228 226 218 213 214 216 212 207 206 208 213 219 223 226 226 226 224 224 227 229 234 241 249 258 265 272 278 283 288 287 283 280 284 299 311 319 322 326 328 327 326 323 321 320 318 317 315 313 311 308 305 301 298
225 221 220 222 225 223 219 216 214 216 221 222 220 224 227 226 225 223 223 222 223 228 227 220 217 220 224 227 226 226 228 231 234 231 224 222 220 215 212 212 209 207 214 221 225 228 228 226 224 224 226 228 234 243 251 260 265 268 271 269 257 239 234 240 268 305 317 323 324 324 324 321 320 318 317 316 315 314 312 309 307 304 301 299 296
224 225 225 226 228 224 217 216 219 223 228 229 229 229 230 228 225 223 221 218 219 223 221 216 216 219 225 227 225 229 235 237 233 229 228 229 227 222 220 220 214 208 215 222 228 230 228 224 223 224 228 230 235 242 250 255 255 251 238 219 202 200 211 247 291 312 317 320 318 315 314 313 311 311 311 311 311 309 308 306 304 302 300 298 296
225 228 230 230 228 223 219 219 224 228 230 232 234 234 232 228 225 222 221 220 221 222 219 217 218 221 225 228 231 236 239 236 230 228 229 230 232 233 231 229 221 214 217 225 230 230 225 221 221 223 225 229 234 239 241 239 232 220 202 190 186 193 231 282 297 305 309 308 307 306 305 305 305 306 307 307 307 306 305 304 303 302 300 299 297
226 229 231 230 224 222 224 224 227 230 230 232 236 236 233 230 227 223 220 221 222 219 217 219 220 222 226 231 234 238 239 233 229 229 228 227 230 233 234 231 224 216 217 227 232 229 221 213 215 222 223 225 230 229 226 219 209 198 188 186 195 223 261 279 287 294 296 296 297 299 300 301 303 306 308 308 308 307 306 305 304 302 301 299 298
225 226 229 229 225 225 226 227 229 229 229 231 235 236 234 232 230 226 222 220 218 214 215 222 227 228 231 234 236 239 240 237 233 232 229 226 228 232 232 230 224 217 213 222 230 228 219 206 209 222 223 220 220 216 211 205 196 190 191 200 219 244 260 272 282 285 288 288 290 296 302 308 312 314 314 312 311 309 308 307 305 303 302 300 300
222 224 226 227 227 227 227 227 230 230 229 231 235 237 236 234 232 231 229 224 221 218 220 226 231 233 235 238 239 239 240 239 235 233 231 227 229 233 233 227 223 218 211 218 229 229 220 205 206 220 221 215 213 206 201 198 193 195 202 215 230 244 258 268 275 278 281 283 291 305 315 319 320 319 316 313 311 309 308 307 306 305 304 303 304
221 224 226 227 229 230 230 231 232 233 233 235 237 238 237 236 233 232 233 229 226 226 228 230 231 235 238 240 240 239 240 238 231 231 232 226 226 231 229 223 220 214 208 216 229 229 223 212 208 214 214 213 210 202 200 199 199 205 215 224 235 247 258 264 267 270 278 290 306 318 320 319 318 316 314 311 309 309 308 308 309 309 309 309 311
219 222 225 229 231 232 234 236 238 239 239 239 240 239 237 237 234 233 235 232 229 231 233 232 233 236 238 238 238 238 238 232 228 234 234 224 223 225 225 222 219 210 203 213 227 227 221 214 210 209 208 207 205 201 201 203 208 216 223 231 240 249 254 256 262 273 290 306 314 315 314 313 312 310 310 309 309 310 311 312 313 313 313 313 314
218 222 227 235 239 239 238 241 244 244 243 241 242 241 238 236 234 233 236 235 232 232 232 232 233 235 235 234 234 233 233 230 232 237 231 223 222 223 223 220 214 207 201 211 225 225 217 212 210 209 206 205 204 204 208 212 217 222 229 235 241 245 249 255 270 288 301 307 309 307 305 304 304 304 305 306 308 309 311 312 313 313 314 314 314
218 223 231 241 248 248 246 246 246 245 243 242 242 243 242 239 236 236 238 237 236 234 234 234 233 232 232 230 229 229 229 229 231 232 228 226 224 222 222 220 217 213 206 210 222 222 212 210 210 208 207 208 207 210 216 219 222 226 230 234 237 243 254 268 283 294 300 301 301 298 296 295 296 297 299 300 301 300 303 308 310 311 313 314 315
222 227 234 241 246 250 250 250 250 248 245 244 244 245 245 244 244 244 241 239 238 235 232 232 230 229 229 226 223 223 224 225 226 229 230 229 226 222 220 218 216 214 209 211 220 219 208 208 213 210 209 212 214 218 223 224 225 224 226 230 237 248 263 276 284 290 293 294 293 291 288 288 289 290 290 291 290 289 294 301 307 309 311 312 311
230 230 232 237 241 246 250 252 254 252 248 246 245 245 246 246 246 244 240 235 233 228 223 224 225 223 222 220 217 217 220 222 224 225 225 224 223 215 208 209 209 209 209 214 221 221 211 211 218 217 216 218 220 222 223 222 222 221 224 232 241 253 264 272 278 283 286 288 287 285 283 282 284 284 284 283 283 283 287 294 301 304 305 305 304
236 233 233 236 240 243 247 250 252 250 248 245 242 242 242 243 243 240 233 226 221 218 218 218 217 216 216 215 214 216 216 217 217 215 214 217 217 207 200 205 207 208 212 218 225 227 218 217 224 225 223 223 221 219 217 217 219 220 227 238 245 253 260 266 271 276 279 280 280 279 278 280 281 281 280 279 278 280 283 289 294 297 299 299 298
239 238 239 240 242 243 243 247 249 248 247 244 240 238 237 238 237 232 224 218 214 213 211 209 210 211 211 211 212 213 213 211 210 207 208 211 211 208 207 212 214 215 219 223 229 231 225 223 229 231 230 227 222 217 214 214 218 224 233 242 248 252 257 261 266 270 273 275 275 275 275 277 278 279 278 276 276 277 280 284 288 291 294 295 296
245 246 246 246 246 246 246 247 249 248 246 246 243 240 237 235 233 226 218 214 213 209 204 204 207 207 207 209 209 210 211 211 209 206 206 208 211 212 216 220 222 223 225 228 232 234 230 227 232 233 231 228 226 221 217 219 224 231 239 245 250 253 256 259 262 265 268 272 274 275 276 277 278 278 275 274 273 273 275 278 283 286 288 291 292
244 248 251 252 252 252 254 254 253 250 248 247 246 244 240 234 230 225 219 214 213 210 205 205 207 207 208 211 211 212 214 215 215 213 211 214 216 217 220 225 226 226 228 230 234 237 234 230 232 232 227 226 225 222 222 227 234 240 244 248 250 253 256 258 260 261 264 269 272 275 276 277 277 276 275 274 272 271 272 275 278 280 283 285 286
239 244 245 248 251 255 259 259 256 254 251 248 247 246 243 236 229 225 221 218 215 212 208 206 208 209 212 215 218 220 221 221 222 221 219 220 220 219 222 226 227 228 231 230 234 240 239 233 233 233 230 229 228 226 226 230 238 245 249 252 253 255 258 260 262 264 265 268 271 273 274 275 275 276 276 276 275 274 273 274 275 277 278 279 280
230 236 238 240 246 252 258 258 254 252 249 247 245 244 242 238 231 227 225 222 218 215 211 209 211 213 217 221 224 225 225 226 226 226 224 224 222 220 223 226 226 230 235 235 234 239 241 236 233 234 234 233 232 233 234 236 242 248 253 257 258 258 261 263 266 268 269 270 271 272 273 274 275 276 277 278 277 276 275 275 275 275 276 277 277
221 226 231 236 242 250 254 253 250 248 248 247 245 243 242 240 237 233 228 222 217 214 212 212 214 217 220 222 223 225 228 228 226 225 224 223 223 223 224 227 228 231 237 238 235 236 240 240 237 236 239 240 238 239 243 246 250 254 257 261 262 262 262 264 267 270 270 271 272 273 273 274 274 275 276 277 277 276 276 275 275 276 276 276 276
223 221 225 232 239 245 249 250 248 249 250 250 248 246 244 244 243 239 231 220 212 211 212 214 217 219 221 222 223 226 229 227 223 221 221 223 225 225 224 226 229 231 236 239 236 234 240 244 244 242 243 246 247 246 248 253 257 259 261 263 263 263 263 263 265 266 268 269 271 272 274 275 275 276 276 276 276 276 276 275 275 276 277 277 277
229 225 225 230 236 242 247 250 251 250 249 248 248 247 245 244 243 239 231 220 215 216 219 221 222 222 222 222 223 226 227 225 222 220 223 225 225 227 228 226 226 228 233 238 239 236 238 243 247 248 248 250 253 253 253 256 260 262 264 265 266 266 265 265 265 266 268 270 271 273 273 273 273 274 273 272 272 273 274 274 275 276 276 276 276
234 232 229 231 235 240 245 249 251 251 248 244 242 242 241 239 238 236 230 225 225 230 232 233 232 229 226 225 227 229 228 226 225 225 229 229 227 231 234 233 230 230 233 238 241 240 238 240 245 249 251 253 255 258 258 259 262 264 266 268 269 269 268 268 269 270 272 272 272 272 272 272 273 274 275 275 274 274 274 275 276 277 277 277 276
237 235 233 234 236 239 243 247 249 250 248 244 241 239 237 235 233 232 232 231 235 241 244 243 242 239 235 233 234 235 234 232 230 230 232 233 233 237 241 240 236 233 235 239 244 246 246 245 246 251 255 258 261 263 264 264 266 267 269 270 270 270 271 271 271 271 273 274 274 275 277 278 280 282 284 284 283 282 281 282 282 281 280 279 279
240 237 235 237 239 242 245 246 248 250 249 246 243 240 237 235 231 230 232 235 240 247 251 251 251 249 245 242 241 240 240 240 239 238 237 237 237 240 243 245 241 236 236 241 246 251 254 254 253 254 258 262 264 266 266 266 267 268 270 270 271 272 273 274 274 274 275 276 278 279 281 283 285 286 287 287 287 287 286 286 286 285 284 283 283
241 238 237 238 240 244 248 249 250 252 251 247 243 241 240 238 235 233 233 236 241 247 252 255 255 251 247 244 243 242 242 244 245 244 242 241 240 240 242 245 245 242 241 244 248 253 258 260 261 261 262 263 265 266 267 267 268 268 269 270 271 272 273 274 274 273 273 274 276 278 278 279 281 282 283 283 282 281 281 282 282 283 284 284 284
238 237 239 240 241 244 248 251 253 254 254 251 245 240 239 241 240 238 237 238 241 246 252 256 257 253 249 246 244 241 238 239 242 244 244 243 242 242 242 244 247 248 248 248 249 251 254 258 261 263 264 264 265 265 265 266 266 267 268 269 270 271 272 273 273 272 273 274 276 277 277 278 280 281 282 283 282 280 280 279 280 280 281 281 282
235 235 239 241 241 244 248 252 254 255 256 256 251 243 240 241 243 243 241 239 241 246 251 256 259 259 257 254 251 248 244 242 242 243 244 244 245 245 246 247 248 250 251 252 253 254 254 255 256 257 259 260 262 263 264 265 267 269 271 272 273 274 275 276 277 278 279 280 280 281 281 282 282 283 284 286 287 287 287 286 286 285 285 284 283
236 235 240 242 241 244 248 252 254 255 255 256 254 249 244 243 244 246 245 243 241 244 248 252 256 258 259 259 257 255 253 251 248 247 246 246 247 248 249 250 251 253 255 256 258 259 260 260 260 261 261 262 264 267 269 270 272 274 276 278 279 280 281 282 284 285 286 286 285 285 285 285 284 284 286 288 289 289 289 290 290 289 288 286 285
240 241 243 243 242 244 248 252 255 256 256 255 255 252 249 247 247 247 247 246 244 243 244 246 250 254 256 258 258 256 255 253 252 251 249 248 248 247 248 250 252 253 255 257 258 260 262 264 266 268 270 271 272 274 276 277 279 280 281 282 284 284 285 286 287 288 288 287 286 285 286 285 284 284 286 286 287 287 288 289 288 286 285 285 285
240 245 248 246 244 245 248 252 255 257 257 256 255 254 252 250 250 249 249 249 248 248 247 247 248 251 253 255 256 255 254 253 252 251 250 250 249 249 249 251 253 255 257 259 261 263 265 267 269 271 273 275 277 279 280 281 282 283 283 283 284 284 285 286 287 288 288 287 286 285 285 284 283 283 283 283 284 285 286 287 285 284 283 283 283
242 248 252 249 243 243 248 252 255 258 258 257 256 255 254 252 251 250 250 250 251 252 254 254 253 251 252 253 253 253 253 253 252 252 252 252 253 253 254 256 258 260 262 264 265 267 269 270 272 273 275 277 278 280 281 281 282 282 283 284 285 286 287 288 288 288 287 286 285 284 284 283 282 281 281 282 283 284 285 285 283 283 282 281 281
245 248 255 252 242 241 249 255 256 257 257 257 257 256 255 254 252 252 252 252 254 256 258 259 258 254 252 251 252 252 252 253 254 254 255 257 259 261 262 264 266 267 268 270 271 272 274 275 276 278 278 280 281 281 282 283 283 284 285 286 287 287 287 287 287 287 286 285 284 283 282 282 281 281 281 282 283 285 285 284 283 283 282 281 280
243 246 252 250 240 241 251 257 257 257 258 257 257 257 257 257 256 255 254 255 258 260 261 261 261 258 253 251 252 253 254 256 257 258 260 261 263 265 266 267 269 270 272 273 274 276 277 277 278 279 280 281 282 282 283 284 284 285 286 286 286 286 286 286 285 285 285 284 282 281 282 282 282 282 283 283 284 285 285 284 283 283 282 281 280
Height
5820 5819 5818 5818 5818 5819 5819 5820 5821 5822 5822 5823 5823 5824 5824 5824 5823 5823 5822 5822 5823 5824 5825 5827 5828 5830 5829 5828 5827 5827 5827 5828 5828 5828 5828 5828 5827 5826 5826 5825 5825 5824 5824 5823 5823 5823 5823 5824 5824 5824 5824 5825 5825 5825 5825 5825 5825 5824 5824 5823 5823 5822 5822 5822 5821 5821 5820 5820 5820 5819 5819 5818 5818 5817 5817 5816 5815 5815 5815 5814 5814 5813 5813 5812 5811
5818 5817 5817 5816 5816 5817 5818 5818 5819 5820 5821 5821 5821 5822 5822 5822 5821 5821 5821 5821 5823 5824 5824 5825 5826 5828 5828 5827 5827 5827 5827 5827 5827 5827 5827 5827 5826 5825 5825 5825 5824 5824 5823 5822 5822 5822 5822 5822 5823 5823 5823 5823 5823 5823 5824 5823 5823 5823 5822 5822 5822 5821 5821 5821 5820 5820 5820 5819 5819 5818 5818 5817 5817 5816 5816 5815 5815 5814 5814 5814 5813 5812 5812 5811 5810
5816 5816 5815 5815 5815 5815 5815 5816 5817 5818 5819 5819 5820 5820 5820 5820 5819 5819 5820 5821 5823 5823 5822 5822 5823 5825 5826 5826 5826 5826 5826 5825 5825 5825 5826 5826 5826 5825 5824 5824 5823 5823 5822 5822 5822 5822 5821 5821 5822 5822 5822 5822 5822 5822 5822 5822 5822 5822 5821 5821 5821 5820 5820 5820 5819 5819 5819 5818 5818 5818 5817 5817 5816 5816 5815 5815 5814 5814 5813 5813 5812 5812 5811 5810 5810
5813 5813 5814 5814 5813 5813 5813 5814 5815 5816 5816 5817 5818 5819 5819 5818 5818 5819 5820 5821 5821 5820 5820 5820 5821 5822 5823 5824 5824 5824 5824 5824 5823 5824 5824 5825 5825 5824 5824 5823 5822 5822 5822 5821 5821 5821 5821 5820 5820 5821 5821 5821 5821 5821 5821 5821 5821 5821 5820 5820 5820 5819 5819 5819 5818 5818 5818 5818 5817 5817 5817 5816 5816 5815 5815 5814 5814 5813 5813 5812 5812 5811 5810 5809 5809
5811 5811 5812 5812 5812 5811 5811 5812 5813 5814 5814 5815 5816 5817 5817 5817 5817 5818 5819 5819 5818 5818 5819 5819 5820 5821 5822 5822 5823 5823 5823 5822 5822 5822 5823 5823 5823 5823 5823 5822 5822 5822 5821 5821 5820 5820 5820 5820 5820 5820 5820 5820 5821 5821 5821 5821 5820 5820 5820 5819 5819 5819 5819 5818 5818 5818 5817 5817 5817 5817 5816 5816 5815 5815 5814 5814 5813 5813 5812 5811 5811 5810 5809 5808 5808
5809 5809 5809 5810 5810 5809 5809 5810 5811 5812 5813 5814 5815 5815 5816 5816 5817 5818 5818 5817 5817 5817 5818 5818 5819 5820 5821 5821 5822 5822 5821 5821 5821 5821 5822 5822 5822 5822 5821 5821 5821 5821 5821 5820 5820 5820 5819 5819 5819 5819 5820 5820 5820 5820 5820 5820 5820 5820 5819 5819 5819 5818 5818 5818 5817 5817 5817 5817 5817 5816 5816 5815 5815 5814 5813 5813 5812 5812 5811 5811 5810 5809 5808 5808 5807
5807 5807 5807 5807 5807 5807 5807 5808 5809 5811 5811 5812 5813 5813 5814 5815 5816 5816 5816 5816 5815 5816 5817 5817 5818 5819 5820 5821 5821 5821 5820 5820 5821 5821 5821 5821 5820 5821 5820 5820 5820 5820 5820 5820 5819 5819 5818 5818 5818 5819 5819 5819 5819 5819 5820 5820 5819 5819 5819 5818 5818 5818 5818 5817 5817 5817 5816 5816 5816 5816 5815 5815 5814 5813 5813 5812 5812 5811 5810 5810 5809 5808 5808 5807 5806
5805 5804 5804 5804 5805 5805 5805 5806 5807 5808 5810 5810 5811 5812 5813 5813 5813 5813 5814 5814 5814 5815 5816 5816 5817 5818 5819 5820 5820 5820 5820 5820 5820 5820 5820 5819 5819 5819 5819 5819 5819 5819 5819 5818 5818 5818 5818 5817 5818 5818 5818 5818 5818 5819 5819 5819 5819 5819 5819 5818 5818 5818 5818 5817 5817 5816 5816 5816 5815 5815 5814 5814 5813 5813 5812 5811 5811 5810 5810 5809 5808 5807 5807 5806 5805
5803 5802 5801 5802 5802 5802 5803 5803 5804 5806 5807 5808 5810 5811 5811 5811 5811 5812 5812 5813 5813 5814 5815 5816 5816 5817 5817 5818 5819 5819 5818 5818 5819 5818 5818 5818 5818 5818 5818 5818 5818 5818 5818 5818 5817 5817 5817 5817 5817 5817 5817 5817 5817 5818 5818 5818 5819 5819 5819 5818 5818 5817 5817 5817 5816 5816 5816 5815 5815 5814 5814 5813 5813 5812 5811 5811 5810 5810 5809 5808 5807 5806 5806 5805 5804
5801 5800 5799 5799 5799 5800 5800 5801 5802 5803 5805 5807 5808 5809 5810 5810 5810 5811 5811 5812 5812 5813 5814 5815 5816 5816 5816 5817 5817 5817 5816 5817 5817 5817 5817 5817 5818 5818 5818 5817 5817 5817 5817 5817 5817 5817 5817 5817 5817 5816 5816 5816 5816 5817 5817 5818 5818 5819 5818 5818 5817 5817 5816 5816 5816 5815 5815 5814 5814 5814 5813 5812 5812 5811 5811 5810 5809 5809 5808 5807 5806 5806 5805 5804 5804
5800 5798 5797 5797 5796 5798 5798 5799 5800 5801 5803 5805 5806 5807 5808 5808 5809 5810 5810 5811 5811 5812 5813 5814 5814 5815 5815 5815 5815 5815 5815 5815 5815 5816 5816 5816 5817 5817 5817 5817 5817 5816 5816 5816 5816 5816 5816 5816 5816 5816 5815 5815 5816 5816 5817 5817 5818 5818 5818 5817 5817 5816 5816 5815 5815 5814 5814 5814 5813 5813 5812 5812 5811 5811 5810 5810 5809 5808 5807 5807 5806 5805 5805 5804 5803
5799 5798 5797 5796 5796 5796 5797 5798 5799 5800 5801 5802 5803 5804 5806 5807 5807 5808 5809 5810 5810 5811 5812 5812 5813 5813 5813 5814 5814 5814 5813 5814 5814 5814 5815 5815 5816 5816 5816 5816 5816 5816 5815 5815 5815 5815 5815 5815 5815 5815 5815 5815 5815 5816 5816 5817 5817 5817 5817 5817 5816 5816 5815 5815 5814 5814 5813 5813 5813 5812 5812 5811 5811 5810 5809 5809 5808 5808 5807 5806 5806 5805 5804 5804 5803
5798 5797 5797 5796 5796 5796 5796 5797 5798 5799 5800 5801 5802 5802 5804 5805 5806 5807 5808 5808 5809 5810 5811 5811 5811 5811 5812 5812 5813 5812 5812 5813 5814 5814 5814 5814 5815 5815 5816 5815 5815 5815 5814 5814 5814 5814 5814 5815 5815 5815 5815 5815 5815 5815 5816 5816 5816 5816 5816 5816 5815 5815 5815 5814 5814 5813 5813 5812 5812 5812 5811 5811 5810 5809 5809 5808 5808 5807 5806 5806 5805 5805 5804 5803 5803
5797 5796 5796 5795 5795 5795 5795 5796 5797 5798 5799 5800 5801 5801 5802 5804 5804 5805 5806 5807 5808 5809 5809 5809 5809 5809 5810 5811 5811 5811 5812 5812 5813 5813 5813 5814 5814 5814 5814 5814 5814 5814 5813 5813 5813 5813 5814 5814 5814 5814 5815 5815 5815 5815 5815 5816 5816 5815 5815 5815 5814 5814 5814 5813 5813 5813 5812 5812 5812 5811 5811 5810 5810 5809 5808 5808 5807 5807 5806 5806 5805 5804 5804 5803 5802
5796 5795 5794 5794 5794 5794 5795 5795 5795 5797 5798 5798 5799 5799 5801 5802 5803 5804 5805 5806 5807 5807 5808 5808 5808 5808 5809 5810 5810 5810 5811 5812 5812 5812 5813 5813 5813 5813 5813 5813 5813 5813 5813 5813 5813 5813 5813 5813 5813 5814 5814 5814 5814 5814 5815 5815 5815 5815 5814 5814 5813 5813 5813 5812 5812 5812 5812 5812 5811 5811 5810 5810 5809 5809 5808 5807 5807 5806 5806 5805 5805 5804 5803 5803 5802
5794 5794 5793 5793 5793 5793 5794 5795 5795 5796 5796 5797 5797 5798 5799 5800 5802 5803 5803 5804 5805 5806 5806 5806 5807 5807 5808 5809 5809 5810 5810 5810 5811 5811 5811 5811 5811 5812 5812 5812 5812 5812 5812 5812 5813 5813 5813 5813 5813 5813 5813 5814 5814 5814 5814 5814 5814 5814 5813 5813 5813 5812 5812 5812 5812 5812 5811 5811 5811 5811 5810 5810 5809 5808 5808 5807 5807 5806 5805 5805 5804 5803 5802 5802 5801
5793 5793 5792 5792 5792 5793 5794 5794 5794 5795 5795 5795 5796 5797 5798 5799 5800 5800 5801 5802 5803 5804 5804 5805 5805 5806 5807 5807 5808 5808 5808 5809 5809 5809 5810 5810 5810 5811 5811 5811 5811 5811 5812 5812 5812 5812 5812 5812 5812 5813 5813 5813 5813 5813 5813 5813 5813 5813 5812 5812 5812 5811 5811 5811 5811 5811 5811 5811 5811 5810 5810 5809 5808 5808 5807 5807 5806 5805 5805 5804 5803 5802 5801 5800 5799
5791 5791 5791 5791 5791 5792 5792 5793 5793 5793 5794 5794 5795 5796 5797 5797 5798 5799 5799 5800 5801 5803 5803 5803 5803 5804 5805 5806 5806 5806 5807 5807 5808 5808 5808 5809 5809 5809 5810 5810 5810 5811 5811 5811 5811 5811 5811 5812 5812 5812 5812 5812 5812 5812 5812 5812 5812 5812 5811 5811 5811 5811 5811 5811 5811 5810 5810 5810 5810 5809 5809 5808 5808 5807 5807 5806 5805 5804 5804 5803 5802 5801 5800 5799 5798
5788 5789 5789 5790 5790 5790 5791 5792 5792 5792 5792 5793 5793 5795 5795 5796 5796 5797 5798 5799 5800 5801 5801 5801 5801 5802 5803 5804 5804 5805 5805 5806 5806 5807 5807 5808 5808 5808 5808 5808 5809 5810 5810 5810 5810 5810 5810 5811 5811 5811 5811 5811 5811 5811 5811 5811 5811 5810 5810 5810 5810 5810 5810 5810 5810 5810 5809 5809 5809 5809 5808 5808 5807 5806 5806 5805 5804 5803 5802 5801 5800 5799 5798 5797 5796
5786 5787 5787 5788 5788 5788 5789 5790 5790 5790 5791 5792 5792 5793 5794 5794 5794 5795 5796 5797 5798 5799 5799 5799 5800 5801 5802 5803 5803 5803 5804 5805 5805 5806 5806 5806 5807 5807 5807 5807 5808 5809 5809 5809 5808 5808 5809 5809 5810 5810 5810 5810 5810 5810 5810 5810 5809 5809 5809 5809 5809 5809 5809 5809 5809 5809 5809 5808 5808 5808 5807 5807 5806 5805 5804 5804 5803 5802 5801 5800 5799 5798 5797 5796 5795
5785 5785 5786 5786 5787 5786 5787 5788 5788 5789 5790 5790 5791 5791 5792 5792 5793 5793 5795 5796 5797 5797 5797 5798 5798 5799 5800 5801 5801 5802 5803 5803 5804 5804 5805 5805 5805 5806 5806 5806 5807 5808 5807 5807 5807 5807 5807 5808 5808 5808 5808 5808 5809 5809 5809 5808 5808 5808 5808 5808 5808 5808 5808 5808 5808 5808 5808 5807 5807 5807 5806 5806 5805 5804 5803 5802 5801 5801 5800 5799 5798 5797 5796 5795 5794
5783 5784 5784 5785 5785 5784 5785 5786 5786 5788 5789 5789 5789 5790 5790 5791 5791 5792 5793 5794 5795 5795 5796 5796 5797 5798 5798 5799 5800 5800 5801 5801 5802 5802 5803 5803 5803 5804 5804 5805 5806 5806 5806 5806 5805 5805 5806 5807 5807 5807 5807 5807 5807 5807 5807 5807 5807 5807 5807 5807 5807 5807 5807 5807 5807 5807 5807 5806 5806 5805 5805 5804 5803 5802 5801 5801 5800 5799 5798 5797 5796 5795 5794 5793 5792
5781 5782 5782 5783 5783 5783 5783 5784 5785 5787 5787 5787 5787 5788 5789 5790 5791 5791 5792 5793 5793 5794 5794 5795 5796 5796 5797 5798 5798 5798 5798 5799 5800 5800 5801 5801 5801 5801 5802 5803 5804 5805 5805 5804 5803 5803 5805 5805 5805 5805 5806 5806 5806 5806 5806 5806 5806 5806 5806 5806 5806 5806 5806 5806 5806 5806 5805 5805 5804 5804 5803 5802 5802 5801 5800 5799 5798 5797 5797 5796 5795 5794 5793 5792 5791
5778 5779 5780 5781 5781 5781 5782 5783 5784 5785 5786 5786 5786 5787 5788 5788 5790 5790 5791 5792 5792 5793 5793 5793 5794 5794 5795 5795 5796 5796 5796 5797 5798 5798 5799 5799 5799 5800 5800 5801 5802 5803 5803 5803 5802 5802 5803 5804 5804 5804 5804 5805 5805 5805 5805 5805 5805 5805 5805 5805 5805 5805 5805 5805 5804 5804 5804 5803 5802 5802 5801 5801 5800 5799 5798 5798 5797 5796 5795 5794 5794 5793 5792 5791 5790
5776 5777 5778 5779 5779 5781 5782 5783 5783 5783 5784 5785 5785 5785 5786 5787 5788 5789 5789 5790 5790 5791 5791 5791 5792 5792 5793 5793 5794 5794 5795 5795 5796 5796 5797 5798 5798 5798 5799 5799 5800 5801 5801 5801 5800 5801 5802 5802 5803 5803 5803 5803 5803 5804 5804 5804 5804 5804 5804 5804 5804 5804 5803 5803 5803 5802 5802 5801 5801 5800 5799 5799 5798 5798 5797 5796 5796 5795 5794 5793 5793 5792 5791 5790 5790
5775 5776 5777 5776 5778 5780 5781 5781 5782 5782 5783 5783 5783 5784 5785 5786 5786 5786 5787 5787 5788 5789 5789 5789 5790 5791 5791 5792 5792 5792 5793 5793 5794 5795 5795 5796 5796 5797 5797 5798 5799 5799 5800 5799 5799 5800 5801 5801 5801 5802 5802 5802 5802 5802 5803 5803 5803 5802 5802 5802 5802 5802 5802 5802 5802 5801 5800 5800 5799 5798 5798 5797 5797 5796 5795 5795 5794 5794 5793 5792 5792 5791 5791 5790 5789
5773 5774 5775 5774 5776 5779 5780 5780 5780 5781 5782 5782 5782 5782 5783 5784 5784 5784 5785 5785 5786 5786 5787 5787 5788 5789 5789 5790 5790 5791 5791 5792 5792 5793 5794 5794 5795 5795 5796 5796 5797 5798 5799 5798 5798 5798 5799 5800 5800 5800 5800 5801 5801 5801 5801 5801 5801 5801 5801 5801 5801 5801 5801 5801 5800 5800 5799 5798 5798 5797 5796 5796 5795 5794 5794 5793 5793 5792 5791 5791 5791 5790 5790 5789 5788
5771 5772 5773 5773 5775 5777 5778 5779 5779 5780 5781 5781 5780 5780 5781 5781 5782 5782 5783 5783 5784 5784 5785 5785 5786 5787 5787 5788 5789 5789 5790 5790 5791 5791 5792 5793 5793 5794 5794 5795 5796 5796 5797 5797 5797 5797 5798 5799 5799 5799 5799 5799 5799 5799 5800 5800 5800 5800 5800 5800 5800 5800 5799 5799 5799 5798 5798 5797 5796 5796 5795 5794 5793 5792 5792 5791 5791 5790 5790 5789 5789 5788 5788 5787 5786
5769 5770 5771 5772 5774 5775 5776 5777 5777 5778 5779 5779 5779 5779 5779 5780 5781 5781 5781 5781 5782 5782 5783 5783 5784 5785 5785 5786 5787 5788 5788 5789 5790 5790 5791 5791 5791 5792 5793 5794 5794 5795 5796 5796 5795 5796 5797 5797 5797 5798 5798 5798 5798 5798 5798 5798 5798 5798 5798 5798 5798 5798 5798 5798 5797 5797 5796 5795 5795 5794 5793 5792 5791 5791 5790 5789 5789 5788 5787 5787 5786 5786 5786 5785 5785
5767 5768 5770 5771 5772 5773 5774 5775 5775 5777 5777 5777 5777 5777 5778 5778 5779 5780 5780 5780 5780 5780 5781 5782 5782 5783 5784 5784 5785 5786 5787 5787 5788 5789 5789 5789 5790 5791 5792 5792 5793 5794 5794 5794 5794 5794 5796 5796 5796 5796 5796 5796 5796 5796 5797 5797 5797 5797 5797 5797 5797 5797 5796 5796 5795 5795 5794 5794 5793 5792 5791 5790 5790 5789 5788 5788 5787 5786 5785 5785 5784 5784 5783 5783 5783
5765 5766 5767 5768 5770 5771 5772 5773 5774 5775 5775 5776 5776 5776 5776 5777 5777 5778 5778 5778 5779 5779 5780 5780 5781 5781 5782 5783 5783 5784 5785 5785 5786 5787 5788 5788 5788 5789 5790 5791 5791 5792 5792 5792 5792 5792 5794 5794 5794 5794 5794 5794 5794 5795 5795 5795 5795 5795 5795 5795 5795 5795 5794 5794 5793 5793 5792 5791 5791 5790 5789 5788 5788 5787 5786 5786 5785 5784 5783 5782 5782 5781 5781 5781 5780
5763 5764 5765 5767 5768 5770 5771 5771 5772 5772 5773 5774 5774 5775 5774 5775 5775 5776 5776 5777 5777 5778 5778 5779 5779 5780 5781 5781 5782 5782 5783 5783 5784 5786 5786 5786 5787 5788 5788 5789 5789 5790 5790 5790 5790 5790 5791 5792 5792 5792 5793 5793 5793 5793 5793 5793 5793 5793 5793 5793 5793 5793 5792 5792 5791 5790 5790 5789 5789 5788 5787 5786 5785 5785 5784 5783 5783 5782 5781 5780 5779 5779 5778 5778 5778
5761 5762 5763 5764 5766 5767 5768 5769 5770 5770 5770 5771 5772 5772 5772 5772 5773 5774 5774 5775 5776 5776 5777 5777 5778 5778 5779 5780 5780 5780 5781 5782 5783 5784 5785 5785 5785 5786 5786 5787 5787 5788 5788 5788 5788 5788 5790 5790 5791 5791 5791 5792 5792 5792 5792 5791 5791 5791 5791 5791 5791 5791 5790 5789 5789 5788 5788 5787 5786 5785 5785 5784 5783 5782 5782 5781 5780 5779 5779 5778 5777 5776 5775 5775 5775
5758 5759 5760 5761 5763 5765 5766 5767 5767 5768 5768 5769 5769 5770 5770 5770 5771 5771 5772 5773 5773 5774 5775 5775 5776 5776 5777 5778 5778 5779 5779 5780 5781 5782 5783 5784 5784 5785 5785 5785 5785 5786 5787 5787 5787 5787 5788 5788 5789 5789 5789 5790 5790 5790 5790 5790 5789 5789 5789 5789 5789 5788 5788 5787 5787 5786 5785 5784 5784 5783 5782 5782 5781 5780 5779 5778 5777 5777 5776 5775 5774 5773 5773 5772 5771
5756 5756 5757 5759 5760 5762 5764 5765 5766 5766 5766 5767 5767 5767 5768 5768 5769 5769 5770 5771 5771 5772 5772 5773 5774 5775 5775 5776 5776 5777 5777 5778 5779 5780 5781 5782 5782 5783 5783 5784 5784 5784 5785 5786 5785 5785 5785 5786 5787 5787 5788 5788 5788 5788 5788 5787 5787 5787 5787 5787 5787 5786 5785 5785 5784 5783 5783 5782 5781 5781 5780 5779 5778 5778 5777 5776 5775 5774 5773 5772 5771 5770 5769 5769 5768
5753 5754 5755 5757 5758 5760 5762 5763 5764 5764 5764 5765 5765 5765 5765 5766 5767 5768 5768 5769 5769 5769 5770 5771 5772 5773 5773 5774 5774 5775 5775 5776 5777 5778 5779 5779 5780 5781 5782 5782 5783 5783 5783 5784 5784 5783 5784 5785 5785 5786 5786 5786 5786 5786 5785 5785 5785 5785 5785 5785 5784 5784 5783 5783 5782 5781 5781 5780 5779 5778 5777 5776 5776 5775 5774 5773 5772 5772 5771 5770 5769 5767 5766 5766 5765
5751 5752 5753 5755 5757 5758 5759 5761 5762 5762 5762 5762 5763 5763 5763 5764 5764 5765 5766 5767 5767 5767 5768 5769 5770 5770 5771 5771 5772 5773 5773 5774 5776 5776 5777 5778 5779 5780 5780 5781 5782 5782 5781 5782 5783 5782 5782 5782 5783 5784 5784 5783 5784 5783 5783 5783 5783 5783 5783 5783 5782 5781 5781 5780 5780 5779 5778 5777 5776 5775 5774 5774 5773 5772 5771 5770 5769 5768 5768 5767 5765 5764 5763 5762 5761
5748 5749 5751 5753 5754 5755 5756 5758 5759 5760 5760 5760 5760 5760 5761 5761 5762 5763 5764 5764 5765 5765 5766 5766 5767 5768 5768 5769 5770 5770 5771 5773 5774 5775 5775 5776 5777 5778 5778 5779 5780 5780 5779 5780 5781 5781 5781 5780 5781 5781 5781 5781 5781 5781 5781 5781 5780 5780 5780 5780 5779 5779 5778 5778 5777 5776 5775 5774 5773 5772 5771 5770 5770 5769 5768 5767 5766 5765 5764 5763 5762 5761 5760 5758 5757
5746 5748 5749 5750 5751 5752 5753 5754 5756 5757 5758 5758 5758 5758 5758 5759 5760 5761 5762 5762 5763 5763 5764 5764 5765 5765 5766 5767 5768 5768 5769 5771 5772 5773 5773 5774 5774 5775 5776 5776 5777 5777 5777 5777 5778 5779 5779 5778 5778 5778 5779 5779 5778 5778 5778 5778 5778 5777 5777 5777 5776 5776 5775 5775 5774 5773 5772 5771 5770 5769 5768 5767 5766 5766 5765 5764 5763 5761 5760 5759 5758 5757 5756 5754 5753
5744 5746 5747 5747 5747 5748 5749 5751 5753 5754 5755 5756 5756 5756 5756 5757 5758 5759 5759 5760 5761 5761 5761 5762 5762 5763 5764 5764 5765 5766 5767 5769 5770 5770 5770 5771 5771 5771 5772 5773 5774 5774 5774 5774 5775 5776 5776 5776 5776 5775 5775 5775 5775 5774 5775 5775 5775 5774 5774 5774 5773 5772 5771 5771 5770 5769 5768 5767 5766 5766 5765 5764 5763 5762 5761 5761 5760 5758 5756 5755 5754 5753 5752 5750 5749
5741 5743 5744 5744 5744 5745 5746 5748 5749 5750 5751 5753 5753 5753 5754 5755 5755 5756 5757 5758 5758 5758 5759 5759 5760 5760 5761 5762 5763 5764 5765 5766 5767 5767 5767 5768 5768 5768 5768 5770 5771 5772 5772 5772 5772 5772 5773 5773 5773 5773 5772 5771 5771 5771 5771 5771 5771 5770 5770 5770 5769 5767 5767 5767 5766 5765 5764 5763 5762 5762 5761 5760 5759 5758 5757 5756 5755 5753 5752 5751 5750 5749 5748 5747 5746
5737 5739 5740 5740 5741 5742 5743 5744 5746 5747 5748 5749 5750 5750 5751 5752 5753 5754 5755 5755 5756 5756 5756 5756 5757 5758 5759 5760 5761 5761 5762 5763 5764 5764 5765 5765 5766 5765 5765 5766 5768 5769 5769 5769 5768 5768 5769 5770 5770 5769 5769 5768 5768 5768 5768 5767 5767 5767 5766 5766 5765 5763 5763 5763 5762 5761 5760 5759 5758 5757 5756 5755 5754 5753 5752 5752 5751 5749 5747 5746 5745 5743 5743 5742 5741
5734 5735 5736 5736 5738 5739 5740 5741 5742 5744 5745 5746 5746 5747 5747 5748 5750 5751 5752 5753 5753 5753 5753 5754 5755 5757 5757 5758 5758 5759 5760 5761 5761 5762 5762 5763 5763 5763 5763 5763 5763 5765 5766 5766 5766 5766 5765 5766 5766 5765 5765 5765 5765 5764 5764 5764 5763 5763 5762 5762 5761 5760 5759 5759 5758 5756 5755 5754 5753 5753 5751 5750 5749 5749 5748 5748 5746 5744 5742 5741 5740 5738 5737 5736 5735
5730 5732 5732 5732 5734 5736 5737 5738 5739 5740 5741 5742 5743 5744 5744 5744 5745 5747 5749 5750 5751 5751 5750 5751 5753 5754 5755 5755 5755 5757 5758 5758 5758 5759 5759 5759 5759 5760 5759 5759 5760 5760 5761 5762 5762 5762 5762 5762 5762 5761 5761 5760 5760 5760 5759 5759 5759 5758 5758 5758 5757 5756 5755 5754 5754 5752 5751 5750 5749 5748 5747 5746 5745 5744 5744 5743 5741 5739 5738 5736 5735 5734 5732 5730 5728
5726 5728 5728 5728 5731 5732 5733 5735 5737 5738 5738 5738 5739 5740 5741 5741 5741 5742 5745 5747 5748 5748 5748 5748 5749 5750 5751 5751 5752 5754 5754 5755 5755 5755 5755 5755 5756 5756 5756 5756 5756 5756 5756 5757 5757 5757 5757 5757 5757 5757 5756 5756 5755 5755 5754 5754 5754 5753 5753 5753 5752 5751 5750 5749 5748 5747 5746 5744 5743 5743 5742 5742 5740 5739 5739 5737 5735 5733 5731 5730 5728 5727 5725 5723 5722
5722 5723 5724 5725 5727 5728 5729 5731 5733 5734 5735 5735 5735 5736 5737 5738 5738 5738 5740 5743 5744 5745 5745 5745 5746 5746 5747 5748 5748 5749 5750 5750 5751 5751 5752 5752 5752 5752 5752 5752 5752 5752 5752 5752 5752 5752 5752 5752 5752 5752 5752 5751 5751 5750 5749 5749 5748 5747 5747 5746 5745 5744 5743 5742 5741 5740 5739 5738 5736 5735 5736 5735 5733 5732 5733 5731 5728 5726 5725 5723 5721 5719 5717 5716 5715
5718 5719 5719 5721 5723 5724 5725 5727 5728 5730 5731 5732 5732 5732 5733 5734 5734 5735 5736 5738 5740 5741 5742 5743 5743 5743 5744 5744 5744 5745 5746 5746 5746 5746 5747 5747 5748 5748 5748 5748 5748 5748 5748 5748 5747 5747 5747 5746 5746 5746 5745 5745 5745 5744 5743 5742 5741 5741 5740 5739 5738 5737 5737 5736 5735 5734 5733 5731 5729 5728 5729 5729 5726 5725 5726 5724 5721 5720 5718 5716 5715 5712 5710 5708 5708
5714 5714 5715 5717 5719 5720 5721 5722 5724 5725 5726 5728 5729 5729 5730 5730 5731 5731 5733 5734 5735 5736 5738 5739 5740 5740 5740 5740 5740 5741 5741 5741 5742 5742 5742 5742 5743 5743 5744 5744 5744 5744 5744 5744 5743 5743 5743 5743 5742 5741 5741 5740 5739 5738 5737 5736 5736 5735 5734 5733 5732 5732 5732 5731 5731 5730 5728 5725 5723 5721 5722 5723 5719 5717 5718 5717 5714 5713 5712 5709 5706 5704 5702 5701 5700
5709 5710 5712 5714 5715 5716 5717 5718 5719 5721 5722 5723 5724 5725 5727 5727 5727 5728 5729 5729 5730 5732 5734 5735 5736 5737 5737 5736 5736 5736 5736 5737 5737 5737 5737 5737 5738 5738 5739 5739 5740 5740 5740 5740 5739 5739 5739 5739 5738 5737 5737 5736 5734 5733 5732 5731 5731 5730 5729 5728 5727 5727 5727 5726 5726 5725 5722 5719 5715 5713 5713 5714 5712 5709 5708 5708 5706 5705 5704 5701 5697 5695 5693 5692 5690
5706 5706 5708 5710 5711 5712 5713 5714 5715 5716 5717 5718 5719 5720 5722 5723 5724 5724 5725 5725 5726 5728 5729 5731 5732 5732 5732 5732 5731 5732 5732 5732 5732 5732 5733 5733 5733 5734 5735 5735 5735 5735 5735 5735 5735 5734 5734 5733 5733 5732 5731 5730 5729 5728 5727 5726 5725 5725 5724 5723 5722 5721 5720 5719 5718 5718 5716 5713 5708 5704 5703 5704 5703 5700 5698 5698 5697 5696 5695 5691 5688 5686 5683 5682 5680
5702 5702 5704 5706 5707 5707 5709 5710 5711 5712 5713 5713 5714 5715 5717 5718 5719 5720 5721 5721 5722 5723 5724 5726 5727 5727 5727 5727 5727 5727 5727 5728 5728 5729 5729 5730 5730 5730 5730 5730 5730 5730 5730 5730 5730 5730 5729 5728 5727 5727 5726 5725 5724 5723 5722 5720 5719 5719 5718 5717 5716 5714 5713 5712 5710 5709 5709 5707 5702 5696 5694 5695 5694 5690 5688 5686 5685 5687 5686 5682 5679 5677 5674 5672 5670